Location: Aulagny
(45.1643°N, 4.3096°E)
Time: 03:09:04
(UTC+00:00)

Lacrosse 5 - Pass Details

Date: 21 October 2019
Orbit: 715 x 724 km, 57.0° (Epoch: 12 November)

Event Time Altitude Azimuth Distance (km) Brightness Sun altitude
Rises 18:17:05 0° 310° (NW) 3,124 6.0 -16.4°
Reaches altitude 10° 18:19:28 10° 310° (NW) 2,201 5.1 -16.8°
Maximum altitude 18:24:32 88° 223° (SW) 721 1.8 -17.7°
Enters shadow 18:27:30 25° 134° (SE) 1,411 3.0 -18.2°
